VIR4405 EGKK-KMCO

Flight info

Callsign VIR4405
Flight time N/A
Altitude 31000
Route IMVUR N63 SAM M195 MARUK N621 LELNA DCT DOMOK UT260 UPALO/N0470F350 UN862 TERPO UN461 AKEMO DCT RIVAK/M083F350 UN460 SIVIR DCT PASAS/M083F340 NATH NICSO/M082F380 DCT CARAC/M082F400 DCT NOVOK M201 VEGAA Y493 TUBBS/N0468F400 DCT OZENA DCT HIBAC ALYNA4
Aircraft A333/H-SDE3GHIJ2J3J5M1RVWXY/LB2D1

Departure

Time N/A
Airport London Gatwick Airport (EGKK)

Arrival

Time 2026-04-22 18:45
Airport Orlando International Airport (KMCO)
Time Latitude Longitude Altitude Speed Heading
2026-04-22 17:29 32.41397 -76.02373 31298 ft 455 kts 233°
2026-04-22 17:29 32.39357 -76.05222 31299 ft 463 kts 233°
2026-04-22 17:29 32.35166 -76.11053 31304 ft 466 kts 233°
2026-04-22 17:30 32.30954 -76.16900 31306 ft 466 kts 233°
2026-04-22 17:30 32.26739 -76.22747 31301 ft 468 kts 233°
2026-04-22 17:31 32.22535 -76.28572 31300 ft 468 kts 233°
2026-04-22 17:31 32.18293 -76.34443 31303 ft 468 kts 233°
2026-04-22 17:32 32.14065 -76.40284 31288 ft 467 kts 233°
2026-04-22 17:32 32.09865 -76.46078 31304 ft 467 kts 233°
2026-04-22 17:33 32.05642 -76.51894 31301 ft 466 kts 233°
2026-04-22 17:33 32.01419 -76.57701 31302 ft 467 kts 232°
2026-04-22 17:34 31.97189 -76.63510 31300 ft 467 kts 232°
2026-04-22 17:34 31.92961 -76.69306 31301 ft 467 kts 232°
2026-04-22 17:35 31.88729 -76.75101 31301 ft 468 kts 233°
2026-04-22 17:35 31.84470 -76.80922 31301 ft 469 kts 233°
2026-04-22 17:36 31.80213 -76.86730 31299 ft 469 kts 232°
2026-04-22 17:36 31.75948 -76.92542 31301 ft 469 kts 232°
2026-04-22 17:37 31.71651 -76.98257 31293 ft 472 kts 228°
2026-04-22 17:37 31.66879 -77.03576 31284 ft 473 kts 226°
2026-04-22 17:38 31.62003 -77.08800 31289 ft 475 kts 226°
2026-04-22 17:38 31.57103 -77.14005 31292 ft 475 kts 226°
2026-04-22 17:39 31.52234 -77.19183 31293 ft 475 kts 226°
2026-04-22 17:40 31.44900 -77.26987 31292 ft 475 kts 226°
2026-04-22 17:40 31.40038 -77.32153 31296 ft 469 kts 226°
2026-04-22 17:41 31.35198 -77.37290 31298 ft 468 kts 226°
2026-04-22 17:41 31.30409 -77.42367 31298 ft 467 kts 226°
2026-04-22 17:42 31.25595 -77.47460 31295 ft 466 kts 226°
2026-04-22 17:42 31.21581 -77.51702 31297 ft 466 kts 226°
2026-04-22 17:43 31.15954 -77.57639 31292 ft 465 kts 226°
2026-04-22 17:43 31.11185 -77.62664 31293 ft 464 kts 226°
2026-04-22 17:44 31.06389 -77.67710 31293 ft 463 kts 226°
2026-04-22 17:44 31.01602 -77.72740 31293 ft 463 kts 226°
2026-04-22 17:45 30.96802 -77.77775 31290 ft 463 kts 226°
2026-04-22 17:45 30.92020 -77.82785 31285 ft 464 kts 226°
2026-04-22 17:46 30.87212 -77.87816 31289 ft 465 kts 226°
2026-04-22 17:46 30.82390 -77.92852 31290 ft 465 kts 226°
2026-04-22 17:47 30.77572 -77.97877 31291 ft 465 kts 226°
2026-04-22 17:47 30.72783 -78.02865 31290 ft 464 kts 226°
2026-04-22 17:48 30.68745 -78.07067 31263 ft 464 kts 226°
2026-04-22 17:48 30.63140 -78.12892 31286 ft 466 kts 226°
2026-04-22 17:49 30.58290 -78.17924 31286 ft 466 kts 226°
2026-04-22 17:49 30.53490 -78.22896 31286 ft 466 kts 226°
2026-04-22 17:50 30.48644 -78.27909 31286 ft 466 kts 226°
2026-04-22 17:50 30.43799 -78.32914 31290 ft 466 kts 226°
2026-04-22 17:51 30.38839 -78.37763 31288 ft 467 kts 223°
2026-04-22 17:51 30.33770 -78.42487 31287 ft 467 kts 223°
2026-04-22 17:52 30.28736 -78.47178 31286 ft 467 kts 223°
2026-04-22 17:52 30.23669 -78.51900 31287 ft 467 kts 223°
2026-04-22 17:53 30.18602 -78.56619 31285 ft 467 kts 223°
2026-04-22 17:53 30.13529 -78.61336 31284 ft 467 kts 223°
2026-04-22 17:54 30.08463 -78.66040 31283 ft 467 kts 223°
2026-04-22 17:54 30.03423 -78.70715 31285 ft 466 kts 223°
2026-04-22 17:55 29.99210 -78.74618 31288 ft 465 kts 223°
2026-04-22 17:55 29.93298 -78.80087 31284 ft 465 kts 223°
2026-04-22 17:56 29.88241 -78.84760 31279 ft 467 kts 223°
2026-04-22 17:56 29.84014 -78.88660 31279 ft 468 kts 223°
2026-04-22 17:57 29.78097 -78.94111 31281 ft 468 kts 223°
2026-04-22 17:57 29.73006 -78.98795 31282 ft 468 kts 223°
2026-04-22 17:58 29.68770 -79.02687 31279 ft 468 kts 223°
2026-04-22 17:58 29.63673 -79.07364 31283 ft 469 kts 223°
2026-04-22 17:59 29.57738 -79.12804 31274 ft 470 kts 223°
2026-04-22 17:59 29.53453 -79.16726 31277 ft 470 kts 223°
2026-04-22 18:00 29.48360 -79.21382 31298 ft 469 kts 223°
2026-04-22 18:00 29.43247 -79.26050 31267 ft 470 kts 223°
2026-04-22 18:01 29.38130 -79.30715 31266 ft 470 kts 223°
2026-04-22 18:01 29.32985 -79.35401 31272 ft 473 kts 223°
2026-04-22 18:02 29.27820 -79.40097 31270 ft 474 kts 223°
2026-04-22 18:02 29.22671 -79.44771 31272 ft 470 kts 223°
2026-04-22 18:03 29.17567 -79.49399 31017 ft 470 kts 223°
2026-04-22 18:03 29.12467 -79.54054 30914 ft 467 kts 226°
2026-04-22 18:04 29.08585 -79.59775 30941 ft 452 kts 248°
2026-04-22 18:04 29.06417 -79.66485 30945 ft 450 kts 253°
2026-04-22 18:05 29.04391 -79.73260 30941 ft 450 kts 253°
2026-04-22 18:05 29.02344 -79.80026 30950 ft 450 kts 253°
2026-04-22 18:06 29.00302 -79.86731 30942 ft 449 kts 253°
2026-04-22 18:06 28.98248 -79.93456 30934 ft 448 kts 253°
2026-04-22 18:07 28.96251 -80.00214 30936 ft 448 kts 254°
2026-04-22 18:07 28.94375 -80.06999 30934 ft 448 kts 255°
2026-04-22 18:08 28.92499 -80.13774 30937 ft 448 kts 255°
2026-04-22 18:08 28.90629 -80.20504 30935 ft 447 kts 254°
2026-04-22 18:09 28.88748 -80.27253 30922 ft 446 kts 255°
2026-04-22 18:09 28.86865 -80.33994 30938 ft 445 kts 255°
2026-04-22 18:10 28.84982 -80.40722 30919 ft 445 kts 255°
2026-04-22 18:10 28.84042 -80.44072 30568 ft 440 kts 255°
2026-04-22 18:10 28.83135 -80.47347 30076 ft 436 kts 256°
2026-04-22 18:10 28.82425 -80.50709 29802 ft 437 kts 262°
2026-04-22 18:11 28.82119 -80.54164 29518 ft 436 kts 269°
2026-04-22 18:11 28.82284 -80.57599 29244 ft 434 kts 277°
2026-04-22 18:11 28.82950 -80.60962 28978 ft 433 kts 286°
2026-04-22 18:11 28.84125 -80.64090 28721 ft 424 kts 297°
2026-04-22 18:12 28.85867 -80.66762 28475 ft 419 kts 310°
2026-04-22 18:12 28.88170 -80.68802 28224 ft 424 kts 324°
2026-04-22 18:12 28.89934 -80.69804 28056 ft 430 kts 332°
2026-04-22 18:12 28.93783 -80.71109 27743 ft 441 kts 344°
2026-04-22 18:13 28.96848 -80.71284 27489 ft 443 kts 359°
2026-04-22 18:13 28.99842 -80.70442 27255 ft 446 kts 17°
2026-04-22 18:13 29.02501 -80.68604 27013 ft 449 kts 36°
2026-04-22 18:13 29.04556 -80.65931 26762 ft 449 kts 55°
2026-04-22 18:14 29.05798 -80.62681 26534 ft 446 kts 74°
2026-04-22 18:14 29.06234 -80.59206 26294 ft 439 kts 88°
2026-04-22 18:14 29.06097 -80.55816 26062 ft 431 kts 99°
2026-04-22 18:14 29.05694 -80.52384 25819 ft 423 kts 93°
2026-04-22 18:15 29.05572 -80.49053 25588 ft 416 kts 92°
2026-04-22 18:15 29.05481 -80.45770 25349 ft 409 kts 91°
2026-04-22 18:15 29.05442 -80.42544 25106 ft 404 kts 91°
2026-04-22 18:15 29.05003 -80.39317 24883 ft 424 kts 108°
2026-04-22 18:16 29.04258 -80.35996 24634 ft 451 kts 98°
2026-04-22 18:16 29.04023 -80.32331 24378 ft 470 kts 96°
2026-04-22 18:16 29.03258 -80.28723 24139 ft 462 kts 115°
2026-04-22 18:16 29.01660 -80.25642 23928 ft 444 kts 133°
2026-04-22 18:17 28.99413 -80.23350 23693 ft 424 kts 153°
2026-04-22 18:17 28.96786 -80.22071 23422 ft 401 kts 173°
2026-04-22 18:17 28.94086 -80.21902 23170 ft 378 kts 194°
2026-04-22 18:17 28.91675 -80.22814 22910 ft 357 kts 215°
2026-04-22 18:18 28.89873 -80.24631 22652 ft 338 kts 238°
2026-04-22 18:18 28.88906 -80.27003 22379 ft 326 kts 255°
2026-04-22 18:18 28.88251 -80.29412 22132 ft 319 kts 252°
2026-04-22 18:18 28.87431 -80.31740 21880 ft 313 kts 248°
2026-04-22 18:19 28.86560 -80.33996 21640 ft 307 kts 249°
2026-04-22 18:19 28.85845 -80.36263 21400 ft 301 kts 255°
2026-04-22 18:19 28.85322 -80.38548 21149 ft 295 kts 256°
2026-04-22 18:19 28.84805 -80.40797 20906 ft 290 kts 255°
2026-04-22 18:20 28.84260 -80.42996 20663 ft 287 kts 254°
2026-04-22 18:20 28.83686 -80.45178 20419 ft 287 kts 253°
2026-04-22 18:20 28.83112 -80.47354 20183 ft 286 kts 256°
2026-04-22 18:20 28.82860 -80.49590 19946 ft 285 kts 271°
2026-04-22 18:21 28.83274 -80.51802 19718 ft 288 kts 291°
2026-04-22 18:21 28.84415 -80.53692 19479 ft 296 kts 313°
2026-04-22 18:21 28.86176 -80.54951 19241 ft 305 kts 335°
2026-04-22 18:21 28.88270 -80.55301 19017 ft 315 kts
2026-04-22 18:22 28.90391 -80.54566 18783 ft 325 kts 27°
2026-04-22 18:22 28.92076 -80.52826 18574 ft 331 kts 54°
2026-04-22 18:22 28.93040 -80.50438 18318 ft 332 kts 71°
2026-04-22 18:22 28.93727 -80.47921 18057 ft 332 kts 73°
2026-04-22 18:23 28.94406 -80.45412 17791 ft 330 kts 73°
2026-04-22 18:23 28.95078 -80.42909 17524 ft 328 kts 73°
2026-04-22 18:23 28.95492 -80.40404 17271 ft 324 kts 91°
2026-04-22 18:24 28.93751 -80.36016 16774 ft 303 kts 145°
2026-04-22 18:24 28.91932 -80.34898 16519 ft 294 kts 167°
2026-04-22 18:24 28.88049 -80.35263 16006 ft 281 kts 210°
2026-04-22 18:25 28.86530 -80.36615 15751 ft 277 kts 231°
2026-04-22 18:25 28.85561 -80.38501 15518 ft 276 kts 249°
2026-04-22 18:25 28.84940 -80.40579 15268 ft 277 kts 252°
2026-04-22 18:26 28.83813 -80.44774 14803 ft 277 kts 252°
2026-04-22 18:26 28.83242 -80.46866 14594 ft 275 kts 253°
2026-04-22 18:26 28.82917 -80.49013 14469 ft 275 kts 269°
2026-04-22 18:26 28.83285 -80.51141 14348 ft 276 kts 292°
2026-04-22 18:27 28.84385 -80.52868 14248 ft 280 kts 317°
2026-04-22 18:27 28.86085 -80.54060 14137 ft 297 kts 328°
2026-04-22 18:27 28.87745 -80.55655 13989 ft 330 kts 304°
2026-04-22 18:27 28.88689 -80.58133 13796 ft 351 kts 279°
2026-04-22 18:28 28.88668 -80.60924 13533 ft 356 kts 256°
2026-04-22 18:28 28.87813 -80.63574 13274 ft 358 kts 246°
2026-04-22 18:28 28.86850 -80.66207 13009 ft 360 kts 248°
2026-04-22 18:28 28.86015 -80.68887 12769 ft 358 kts 251°
2026-04-22 18:29 28.85287 -80.71600 12512 ft 358 kts 253°
2026-04-22 18:29 28.84626 -80.74335 12262 ft 357 kts 254°
2026-04-22 18:29 28.84012 -80.77044 12018 ft 357 kts 255°
2026-04-22 18:29 28.83409 -80.79791 11778 ft 357 kts 255°
2026-04-22 18:30 28.82819 -80.82539 11529 ft 357 kts 256°
2026-04-22 18:30 28.81654 -80.88039 11029 ft 357 kts 255°
2026-04-22 18:30 28.81074 -80.90785 10801 ft 356 kts 255°
2026-04-22 18:31 28.80496 -80.93527 10574 ft 355 kts 255°
2026-04-22 18:31 28.79919 -80.96268 10332 ft 355 kts 254°
2026-04-22 18:31 28.79342 -80.99002 10099 ft 354 kts 253°
2026-04-22 18:31 28.78721 -81.01712 9826 ft 349 kts 250°
2026-04-22 18:32 28.77679 -81.04109 9665 ft 329 kts 233°
2026-04-22 18:32 28.76347 -81.06148 9549 ft 312 kts 230°
2026-04-22 18:32 28.75018 -81.08036 9434 ft 298 kts 229°
2026-04-22 18:32 28.73738 -81.09838 9313 ft 288 kts 229°
2026-04-22 18:33 28.72481 -81.11609 9191 ft 287 kts 228°
2026-04-22 18:33 28.71196 -81.13314 9055 ft 286 kts 222°
2026-04-22 18:33 28.69572 -81.14571 8814 ft 281 kts 199°
2026-04-22 18:33 28.67711 -81.15222 8565 ft 279 kts 191°
2026-04-22 18:34 28.65823 -81.15711 8316 ft 279 kts 191°
2026-04-22 18:34 28.63916 -81.16186 8073 ft 281 kts 191°
2026-04-22 18:34 28.62010 -81.16666 7980 ft 280 kts 191°
2026-04-22 18:34 28.60102 -81.17153 7975 ft 280 kts 190°
2026-04-22 18:35 28.58213 -81.17639 7974 ft 273 kts 191°
2026-04-22 18:35 28.56410 -81.18105 7979 ft 260 kts 191°
2026-04-22 18:35 28.54650 -81.18522 7946 ft 256 kts 185°
2026-04-22 18:35 28.52928 -81.18656 7783 ft 249 kts 180°
2026-04-22 18:36 28.51201 -81.18681 7531 ft 248 kts 177°
2026-04-22 18:36 28.49473 -81.18688 7280 ft 248 kts 177°
2026-04-22 18:36 28.47745 -81.18693 7006 ft 248 kts 179°
2026-04-22 18:36 28.46018 -81.18704 6734 ft 248 kts 177°
2026-04-22 18:37 28.44303 -81.18718 6453 ft 246 kts 176°
2026-04-22 18:37 28.42594 -81.18731 6197 ft 245 kts 177°
2026-04-22 18:37 28.41472 -81.18739 6096 ft 240 kts 177°
2026-04-22 18:37 28.39291 -81.18756 5991 ft 227 kts 178°
2026-04-22 18:38 28.37725 -81.18768 5786 ft 225 kts 177°
2026-04-22 18:38 28.36180 -81.18776 5522 ft 225 kts 176°
2026-04-22 18:38 28.34617 -81.18787 5275 ft 223 kts 175°
2026-04-22 18:39 28.31535 -81.19171 4611 ft 237 kts 200°
2026-04-22 18:39 28.30274 -81.20473 4132 ft 254 kts 233°
2026-04-22 18:39 28.29429 -81.22210 4019 ft 248 kts 241°
2026-04-22 18:39 28.28731 -81.23966 3861 ft 244 kts 250°
2026-04-22 18:40 28.28630 -81.25863 3639 ft 243 kts 283°
2026-04-22 18:40 28.29497 -81.27434 3452 ft 233 kts 323°
2026-04-22 18:40 28.30909 -81.28114 3284 ft 216 kts 360°
2026-04-22 18:40 28.32385 -81.28146 2951 ft 210 kts
2026-04-22 18:41 28.33828 -81.28195 2604 ft 205 kts
2026-04-22 18:41 28.35242 -81.28232 2240 ft 201 kts
2026-04-22 18:41 28.36640 -81.28185 1813 ft 202 kts
2026-04-22 18:41 28.37882 -81.27691 1658 ft 179 kts 48°
2026-04-22 18:42 28.38295 -81.26532 1634 ft 153 kts 103°
2026-04-22 18:42 28.37689 -81.25620 1462 ft 152 kts 141°
2026-04-22 18:42 28.36801 -81.25081 1442 ft 143 kts 172°
2026-04-22 18:42 28.35979 -81.25659 1300 ft 155 kts 242°
2026-04-22 18:43 28.36136 -81.26828 1211 ft 158 kts 313°
2026-04-22 18:43 28.37018 -81.27485 1154 ft 152 kts 338°
2026-04-22 18:43 28.37964 -81.27996 917 ft 147 kts 348°
2026-04-22 18:43 28.38944 -81.28205 674 ft 145 kts
2026-04-22 18:44 28.39964 -81.28213 476 ft 147 kts
2026-04-22 18:44 28.40970 -81.28226 272 ft 142 kts
2026-04-22 18:44 28.41966 -81.28236 140 ft 143 kts
2026-04-22 18:44 28.42889 -81.28239 107 ft 109 kts 359°
2026-04-22 18:45 28.43279 -81.28248 106 ft 67 kts
2026-04-22 18:45 28.43692 -81.28251 109 ft 34 kts 359°
2026-04-22 18:45 28.43869 -81.28365 111 ft 29 kts 289°
2026-04-22 18:45 28.43874 -81.28609 108 ft 33 kts 269°
2026-04-22 18:46 28.43872 -81.28877 108 ft 34 kts 269°
2026-04-22 18:46 28.43869 -81.29157 104 ft 37 kts 269°